Regional Weather Roundup
Issued by NWS New Orleans/Baton Rouge, LA

Home | Current Version | Previous Version | Graphics & Text | Print | Product List | Glossary On
Versions: 1 2 3 4 5 6 7 8 9 10 11 12 13 14 15 16 17 18 19 20 21 22 23 24 25 26 27 28 29 30 31 32 33 34 35 36 37 38 39 40 41 42 43 44 45 46 47 48 49 50
270
ASUS44 KLIX 181211
RWRLIX
NEW ORLEANS REGIONAL WEATHER ROUNDUP
NATIONAL WEATHER SERVICE NEW ORLEANS LA
700 AM CDT SAT APR 18 2015

NOTE: "FAIR" INDICATES FEW OR NO CLOUDS BELOW 12,000 FEET WITH NO
      SIGNIFICANT WEATHER AND/OR OBSTRUCTIONS TO VISIBILITY.
      SKY/WX - SKY CONDITION AND SIGNIFICANT WEATHER.
      TMP - AIR TEMPERATURE.     DP    - DEWPOINT TEMPERATURE.
      RH  - RELATIVE HUMIDITY.   PRES  - PRESSURE.
      HI  - HEAT INDEX.          WCI   - WIND CHILL INDEX.

*  THESE STATIONS ARE NOT NWS OR FAA STATIONS AND ARE NOT UNDER
   NWS QUALITY CONTROL.

LAZ038-040-048-061>063-065>067-069-181300-
SOUTHEAST LOUISIANA

CITY           SKY/WX    TMP DP  RH WIND       PRES   REMARKS
N.O. AUDUBON     N/A     73  73 100 MISG        N/A
6HR MIN TEMP:  70; 6HR MAX TEMP:  73; 6HR PCP:  0.32;

N.O. INTL ARPT LGT RAIN  72  69  90 NE8       29.91F
6HR MIN TEMP:  71; 6HR MAX TEMP:  74; 6HR PCP:  0.33;

N.O. LAKEFRONT LGT RAIN  74  68  81 NE6       29.92R
6HR MIN TEMP:  74; 6HR MAX TEMP:  78; 6HR PCP:  0.34;

SLIDELL        LGT RAIN  70  70 100 CALM      29.94R
6HR MIN TEMP:  70; 6HR MAX TEMP:  72; 6HR PCP:  0.17;

BATON ROUGE    CLOUDY    69  67  93 E9        29.89F
6HR MIN TEMP:  69; 6HR MAX TEMP:  72; 6HR PCP:  0.45;

BOOTHVILLE     CLOUDY    69  68  96 N3        29.90F
6HR MIN TEMP:  69; 6HR MAX TEMP:  73; 6HR PCP:  1.48;

BELLE CHASSE   LGT RAIN  71  69  93 NE5       29.91R FOG
6HR MIN TEMP:  70; 6HR MAX TEMP:  73;

BOGALUSA*        N/A     70  66  88 CALM      29.96R
6HR MIN TEMP:  69; 6HR MAX TEMP:  70; 6HR PCP:  0.02;

GALLIANO*      CLOUDY    69  68  98 CALM      29.90F
6HR MIN TEMP:  67; 6HR MAX TEMP:  73; 6HR PCP:  1.73;

NEW ROADS*     PTSUNNY   69  67  96 SE3       29.89R
6HR MIN TEMP:  68; 6HR MAX TEMP:  72; 6HR PCP:  0.36;

GONZALES*      TSTM      69  69 100 CALM      29.92R
6HR MIN TEMP:  69; 6HR MAX TEMP:  72; 6HR PCP:  0.45;

HAMMOND*       CLOUDY    70  66  88 CALM      29.95R
HOUMA*         TSTM      70  70 100 N6        29.92R
PORT FOURCHON* CLOUDY    72  70  94 NE8       29.92F

$$

MSZ070-080>082-181300-
SOUTHERN MISSISSIPPI

CITY           SKY/WX    TMP DP  RH WIND       PRES   REMARKS
MCCOMB         LGT RAIN  67  66  97 E6        29.92F
6HR MIN TEMP:  67; 6HR MAX TEMP:  68; 6HR PCP:  0.04;

GULFPORT       LGT RAIN  69  67  93 NE5       29.92S
6HR MIN TEMP:  69; 6HR MAX TEMP:  71; 6HR PCP:  0.18;

BILOXI         LGT RAIN  68  68 100 NE7       29.92S
6HR MIN TEMP:  68; 6HR MAX TEMP:  71; 6HR PCP:  0.24;

PASCAGOULA     RAIN      69  68  96 NE5       29.92F FOG
6HR MIN TEMP:  68; 6HR MAX TEMP:  69; 6HR PCP:  0.11;

STENNIS ARPT*  LGT RAIN  70  64  83 MISG      29.93

$$

COASTAL OBSERVATIONS
LAKE AND NEARSHORE STATIONS

STATION/POSITION TIME  TEMP    WIND        PRES    WAVE
                       AIR SEA DIR/SP/G            HT/PER
                 (UTC) (F)     (DEG/KT/KT) (MB)    (FT/S)
PASCAGOULA       1100   69      20/  6/  6 1013.0
WAVELAND YACHT   1100   69 73  100/  7/  8 1012.9
GRAND ISLE       1100   71 76   90/  6/  8 1012.6
SOUTHWEST PASS   1100   70 63  360/ 17/ 22 1012.8
NEW CANAL        1100   72      80/  3/  5 1012.8
SHELL BEACH      1100   74 76   10/  7/  8 1011.9

OFFSHORE STATIONS

STATION/POSITION TIME  TEMP    WIND        PRES    WAVE
                       AIR SEA DIR/SP/G            HT/PER
                 (UTC) (F)     (DEG/KT/KT) (MB)    (FT/S)
64 S DAUPHIN ISL 1150   69 74  190/ 23/ 25 1012.9    3/ 5

$$




USA.gov is the U.S. government's official web portal to all federal, state and local government web resources and services.